Change the Weather History Date:

Saturday, November 10, 2012

  Actual Average Record
Temperature  
Mean Temperature 28 °F 35 °F  
Max Temperature 38 °F 46 °F 70 °F (1989)
Min Temperature 18 °F 24 °F -5 °F (1986)
Degree Days  
Heating Degree Days 37 30  
Month to date heating degree days 293 273  
Since 1 July heating degree days 1050 1047  
Cooling Degree Days 0 0  
Month to date cooling degree days 0 0  
Year to date cooling degree days 866 644  
Moisture  
Dew Point 27 °F    
Average Humidity 89    
Maximum Humidity 100    
Minimum Humidity 77    
Precipitation  
Precipitation 0.23 in 0.03 in 0.67 in (1970)
Month to date precipitation 0.33 0.30  
Year to date precipitation 13.14 17.25  
Snow  
Snow 0.00 in - - ()
Month to date snowfall T  
Since 1 July snowfall T  
Snow Depth 0.00 in    
Sea Level Pressure  
Sea Level Pressure 29.66 in    
Wind  
Wind Speed 16 mph (NNW)    
Max Wind Speed 32 mph    
Max Gust Speed 41 mph    
Visibility 4 miles    
Events Fog , Rain , Snow    
T = Trace of Precipitation, MM = Missing Value Source: NWS Daily Summary

Daily Weather History Graph

Daily Weather History Graph

Search for Another Location

Airport or City:

Trip Planner

Search our weather history database for the weather conditions in past years. The results will help you decide how hot, cold, wet, or windy it might be!

Date:

Astronomy

Nov. 10, 2012 Rise Set
Actual Time 7:34 AM CST 5:16 PM CST
Civil Twilight 7:02 AM CST 5:47 PM CST
Nautical Twilight 6:27 AM CST 6:23 PM CST
Astronomical Twilight 5:52 AM CST 6:58 PM CST
Moon 3:31 AM CST (11/10) 3:12 PM CST (11/10)
Length of Visible Light 10h 44m
Length of Day
9h 41m
Waning Crescent, 14% of the Moon is Illuminated
Nov 10
Waning Crescent
Nov 13
New
Nov 20
First Quarter
Nov 28
Full
Dec 6
Last Quarter

Hourly Weather History & Observations

Time (CST) Temp. Windchill Dew Point Humidity Pressure Visibility Wind Dir Wind Speed Gust Speed Precip Events Conditions
12:32 AM 35.6 °F 30.7 °F 33.8 °F 93% 29.69 in 3.0 mi ENE 5.8 mph - N/A   Overcast
12:52 AM 35.1 °F 32.2 °F 34.0 °F 96% 29.73 in 3.0 mi ENE 3.5 mph - N/A   Overcast
1:40 AM 35.6 °F 29.9 °F 35.6 °F 100% 29.66 in 2.5 mi ENE 6.9 mph - N/A   Overcast
1:52 AM 35.1 °F 29.3 °F 35.1 °F 100% 29.70 in 2.5 mi NE 6.9 mph - N/A   Overcast
2:25 AM 35.6 °F 29.2 °F 35.6 °F 100% 29.64 in 3.0 mi NE 8.1 mph - N/A   Overcast
2:52 AM 36.0 °F - 36.0 °F 100% 29.69 in 4.0 mi Calm Calm - N/A   Overcast
3:52 AM 37.0 °F 32.4 °F 36.0 °F 96% 29.67 in 3.0 mi North 5.8 mph - 0.01 in   Overcast
4:34 AM 37.4 °F 31.4 °F 35.6 °F 93% 29.60 in 2.5 mi NNE 8.1 mph - N/A   Overcast
4:52 AM 37.0 °F 31.6 °F 36.0 °F 96% 29.64 in 3.0 mi NNE 6.9 mph - N/A   Overcast
5:19 AM 37.4 °F 30.8 °F 35.6 °F 93% 29.57 in 6.0 mi NNE 9.2 mph - 0.01 in   Overcast
5:52 AM 37.0 °F 32.4 °F 37.0 °F 100% 29.64 in 10.0 mi NNE 5.8 mph - 0.01 in   Overcast
6:13 AM 35.6 °F 30.7 °F 35.6 °F 100% 29.59 in 7.0 mi WNW 5.8 mph - N/A   Overcast
6:52 AM 36.0 °F 29.6 °F 36.0 °F 100% 29.64 in 5.0 mi North 8.1 mph - N/A   Overcast
7:52 AM 36.0 °F 29.6 °F 36.0 °F 100% 29.64 in 4.0 mi North 8.1 mph - 0.00 in   Overcast
8:52 AM 36.0 °F 28.5 °F 35.1 °F 97% 29.63 in 3.0 mi North 10.4 mph - 0.02 in   Overcast
8:59 AM 35.6 °F 29.2 °F 35.6 °F 100% 29.59 in 2.5 mi North 8.1 mph - 0.00 in   Overcast
9:10 AM 35.6 °F 28.0 °F 35.6 °F 100% 29.59 in 3.0 mi North 10.4 mph - 0.00 in Rain Light Rain
9:52 AM 35.1 °F 26.4 °F 35.1 °F 100% 29.62 in 5.0 mi NNW 12.7 mph - 0.02 in   Overcast
10:52 AM 34.0 °F 25.5 °F 33.1 °F 96% 29.62 in 6.0 mi North 11.5 mph - 0.00 in   Overcast
11:24 AM 33.8 °F 23.5 °F 33.8 °F 100% 29.56 in 6.0 mi North 16.1 mph - 0.00 in   Overcast
11:52 AM 34.0 °F 24.2 °F 33.1 °F 96% 29.62 in 6.0 mi North 15.0 mph - 0.00 in   Overcast
12:52 PM 33.1 °F 23.4 °F 32.0 °F 96% 29.62 in 2.5 mi NW 13.8 mph - 0.02 in Rain Light Rain
1:21 PM 32.0 °F 20.1 °F 30.2 °F 93% 29.59 in 3.0 mi NW 19.6 mph 25.3 mph 0.01 in   Overcast
1:52 PM 30.9 °F 18.1 °F 30.0 °F 96% 29.63 in 4.0 mi NW 21.9 mph 29.9 mph 0.01 in   Overcast
2:17 PM 30.2 °F 17.8 °F 28.4 °F 93% 29.58 in 5.0 mi NNW 19.6 mph 35.7 mph 0.00 in Rain Light Freezing Rain
2:47 PM 28.4 °F 13.8 °F 26.6 °F 93% 29.57 in 5.0 mi NNW 25.3 mph 34.5 mph 0.00 in Rain Light Freezing Rain
2:52 PM 28.0 °F 13.9 °F 26.1 °F 92% 29.63 in 6.0 mi NNW 23.0 mph 34.5 mph 0.00 in Rain Light Freezing Rain
3:09 PM 28.4 °F 14.4 °F 24.8 °F 86% 29.58 in 10.0 mi NNW 23.0 mph 34.5 mph 0.00 in   Overcast
3:52 PM 26.1 °F 10.7 °F 23.0 °F 88% 29.65 in 2.5 mi NNW 25.3 mph 34.5 mph 0.00 in Snow Light Snow
4:01 PM 24.8 °F 9.3 °F 23.0 °F 93% 29.61 in 1.5 mi NNW 24.2 mph 33.4 mph 0.00 in Snow Light Snow
4:13 PM 24.8 °F 9.0 °F 23.0 °F 93% 29.61 in 2.0 mi NNW 25.3 mph 34.5 mph 0.01 in Snow Light Snow
4:20 PM 24.8 °F 9.6 °F 23.0 °F 93% 29.63 in 1.5 mi NW 23.0 mph 34.5 mph 0.01 in Snow Light Snow
4:42 PM 24.8 °F 9.6 °F 21.2 °F 86% 29.63 in 0.8 mi NW 23.0 mph 33.4 mph 0.02 in Snow Light Snow
4:52 PM 24.1 °F 8.3 °F 21.9 °F 91% 29.69 in 0.8 mi NW 24.2 mph 31.1 mph 0.03 in Snow Light Snow
5:00 PM 24.8 °F 9.0 °F 21.2 °F 86% 29.63 in 1.2 mi NW 25.3 mph 38.0 mph 0.00 in Snow Light Snow
5:07 PM 23.0 °F 6.3 °F 21.2 °F 93% 29.63 in 0.8 mi NW 26.5 mph 35.7 mph 0.00 in Snow Light Snow
5:29 PM 23.0 °F 6.6 °F 21.2 °F 93% 29.66 in 1.0 mi NW 25.3 mph 32.2 mph 0.02 in Snow Light Snow
5:52 PM 23.0 °F 6.3 °F 19.9 °F 88% 29.74 in 1.2 mi NW 26.5 mph 35.7 mph 0.02 in Snow Light Snow
6:16 PM 21.2 °F 5.2 °F 19.4 °F 93% 29.71 in 1.0 mi NW 21.9 mph 29.9 mph 0.01 in Snow Light Snow
6:25 PM 21.2 °F 5.2 °F 19.4 °F 93% 29.72 in 0.8 mi NW 21.9 mph 35.7 mph 0.01 in Snow Light Snow
6:39 PM 21.2 °F 3.9 °F 17.6 °F 86% 29.72 in 0.8 mi NW 26.5 mph 33.4 mph 0.03 in Snow Light Snow
6:52 PM 21.0 °F 3.9 °F 19.0 °F 92% 29.79 in 0.5 mi NW 25.3 mph 34.5 mph 0.03 in Fog , Snow Snow
7:52 PM 19.9 °F 2.2 °F 18.0 °F 92% 29.80 in 0.8 mi NW 26.5 mph 36.8 mph 0.05 in Snow Light Snow
8:00 PM 19.4 °F 0.8 °F 17.6 °F 93% 29.71 in 1.0 mi NW 28.8 mph 36.8 mph 0.00 in Snow Light Snow
8:25 PM 19.4 °F 1.1 °F 15.8 °F 86% 29.68 in 1.2 mi NW 27.6 mph 35.7 mph 0.01 in Snow Light Snow
8:50 PM 19.4 °F 0.2 °F 15.8 °F 86% 29.71 in 2.5 mi NW 31.1 mph 39.1 mph 0.01 in Snow Light Snow
8:52 PM 19.0 °F 0.6 °F 15.1 °F 85% 29.78 in 2.5 mi NW 27.6 mph 39.1 mph 0.01 in Snow Light Snow
9:02 PM 19.4 °F 2.1 °F 15.8 °F 86% 29.73 in 4.0 mi NW 24.2 mph 35.7 mph 0.00 in Snow Light Snow
9:52 PM 19.0 °F 1.6 °F 14.0 °F 81% 29.81 in 4.0 mi NW 24.2 mph 38.0 mph 0.00 in Snow Light Snow
10:52 PM 18.0 °F -0.5 °F 12.0 °F 78% 29.83 in 10.0 mi NW 26.5 mph 38.0 mph 0.00 in   Overcast
11:29 PM 17.6 °F 0.1 °F 12.2 °F 79% 29.75 in 10.0 mi NW 23.0 mph 38.0 mph N/A   Overcast
11:52 PM 18.0 °F -0.2 °F 12.0 °F 78% 29.83 in 10.0 mi NW 25.3 mph 35.7 mph N/A   Mostly Cloudy